Mineola, TX

2:08 AM CDT on April 24, 2017 (GMT -0500)
Mineola

Weather History for KJDD - January, 2014

Change the Weather History Date:

Friday, January 17, 2014

  Actual Average (KTYR) Record (KTYR)
Temperature  
Mean Temperature 41 °F -  
Max Temperature 50 °F 56 °F 79 °F (1952)
Min Temperature 32 °F 37 °F 11 °F (1957)
Degree Days  
Heating Degree Days 24    
Moisture  
Dew Point 16 °F    
Average Humidity 37    
Maximum Humidity 80    
Minimum Humidity 19    
Precipitation  
Precipitation 0.00 in - - ()
Sea Level Pressure  
Sea Level Pressure 30.27 in    
Wind  
Wind Speed 6 mph (NW)    
Max Wind Speed 16 mph    
Max Gust Speed 22 mph    
Visibility 10 miles    
Events      
Averages and records for this station are not official NWS values.
T = Trace of Precipitation, MM = Missing Value Source: NWS Daily Summary

Daily Weather History Graph

Daily Weather History Graph

Search for Another Location

Airport or City:

Trip Planner

Search our weather history database for the weather conditions in past years. The results will help you decide how hot, cold, wet, or windy it might be!

Date:

Astronomy

Jan. 17, 2014 Rise Set
Actual Time 7:23 AM CST 5:40 PM CST
Civil Twilight 6:57 AM CST 6:07 PM CST
Nautical Twilight 6:27 AM CST 6:37 PM CST
Astronomical Twilight 5:57 AM CST 7:06 PM CST
Moon 7:19 PM CST (1/17) 7:59 AM CST (1/17)
Length of Visible Light 11h 09m
Length of Day
10h 16m
Full, 98% of the Moon is Illuminated
Jan 17
Full
Jan 23
Last Quarter
Jan 30
New
Feb 6
First Quarter
Feb 14
Full

Hourly Weather History & Observations

Time (CST) Temp. Windchill Dew Point Humidity Pressure Visibility Wind Dir Wind Speed Gust Speed Precip Events Conditions
12:15 AM 46.4 °F 45.2 °F 12.2 °F 25% 30.17 in 10.0 mi West 3.5 mph - N/A   Clear
12:35 AM 46.4 °F 45.2 °F 12.2 °F 25% 30.16 in 10.0 mi West 3.5 mph - N/A   Clear
12:55 AM 46.4 °F 45.2 °F 12.2 °F 25% 30.17 in 10.0 mi West 3.5 mph - N/A   Clear
1:15 AM 44.6 °F 42.2 °F 14.0 °F 29% 30.18 in 10.0 mi West 4.6 mph - N/A   Clear
1:35 AM 44.6 °F 43.1 °F 14.0 °F 29% 30.18 in 10.0 mi WSW 3.5 mph - N/A   Clear
1:55 AM 44.6 °F 43.1 °F 14.0 °F 29% 30.19 in 10.0 mi West 3.5 mph - N/A   Clear
2:15 AM 46.4 °F 45.2 °F 14.0 °F 27% 30.19 in 10.0 mi West 3.5 mph - N/A   Clear
2:35 AM 46.4 °F - 14.0 °F 27% 30.20 in 9.0 mi Calm Calm - N/A   Clear
2:55 AM 46.4 °F 45.2 °F 17.6 °F 32% 30.20 in 10.0 mi WSW 3.5 mph - N/A   Clear
3:15 AM 46.4 °F 45.2 °F 17.6 °F 32% 30.21 in 10.0 mi WNW 3.5 mph - N/A   Clear
3:35 AM 46.4 °F 44.3 °F 17.6 °F 32% 30.22 in 9.0 mi WNW 4.6 mph - N/A   Clear
3:55 AM 46.4 °F 43.5 °F 15.8 °F 29% 30.22 in 9.0 mi NW 5.8 mph - N/A   Clear
4:15 AM 48.2 °F - 17.6 °F 30% 30.23 in 10.0 mi NW 6.9 mph - N/A   Partly Cloudy
4:35 AM 46.4 °F 41.9 °F 17.6 °F 32% 30.24 in 10.0 mi NNW 9.2 mph - N/A   Clear
4:55 AM 46.4 °F 41.9 °F 17.6 °F 32% 30.25 in 10.0 mi NNW 9.2 mph - N/A   Partly Cloudy
5:15 AM 46.4 °F 40.4 °F 17.6 °F 32% 30.25 in 10.0 mi NNW 13.8 mph 17.3 mph N/A   Partly Cloudy
5:35 AM 46.4 °F 41.9 °F 17.6 °F 32% 30.26 in 10.0 mi NNW 9.2 mph - N/A   Partly Cloudy
5:55 AM 46.4 °F 40.1 °F 14.0 °F 27% 30.27 in 10.0 mi NNW 15.0 mph 21.9 mph N/A   Partly Cloudy
6:15 AM 44.6 °F 38.8 °F 14.0 °F 29% 30.27 in 10.0 mi NNW 11.5 mph - N/A   Partly Cloudy
6:35 AM 44.6 °F 38.4 °F 14.0 °F 29% 30.28 in 10.0 mi NNW 12.7 mph 19.6 mph N/A   Clear
6:55 AM 44.6 °F 38.4 °F 15.8 °F 31% 30.29 in 10.0 mi NNW 12.7 mph 17.3 mph N/A   Clear
7:15 AM 42.8 °F 36.6 °F 15.8 °F 34% 30.30 in 10.0 mi NNW 11.5 mph 16.1 mph N/A   Clear
7:35 AM 41.0 °F 34.7 °F 15.8 °F 36% 30.31 in 10.0 mi NNW 10.4 mph - N/A   Clear
7:55 AM 41.0 °F 36.4 °F 17.6 °F 39% 30.32 in 10.0 mi NNW 6.9 mph - N/A   Clear
8:15 AM 42.8 °F 36.2 °F 17.6 °F 36% 30.32 in 10.0 mi NNW 12.7 mph 18.4 mph N/A   Partly Cloudy
8:35 AM 42.8 °F 36.2 °F 15.8 °F 34% 30.33 in 10.0 mi NNW 12.7 mph 18.4 mph N/A   Scattered Clouds
8:55 AM 41.0 °F 33.9 °F 15.8 °F 36% 30.34 in 10.0 mi NNW 12.7 mph 19.6 mph N/A   Clear
9:15 AM 41.0 °F 34.7 °F 15.8 °F 36% 30.35 in 10.0 mi NNW 10.4 mph 18.4 mph N/A   Clear
9:35 AM 42.8 °F 35.8 °F 14.0 °F 31% 30.36 in 10.0 mi NW 13.8 mph 18.4 mph N/A   Clear
9:55 AM 42.8 °F 37.0 °F 14.0 °F 31% 30.36 in 10.0 mi NW 10.4 mph 16.1 mph N/A   Clear
10:15 AM 44.6 °F 38.1 °F 14.0 °F 29% 30.37 in 10.0 mi NNW 13.8 mph 19.6 mph N/A   Clear
10:35 AM 44.6 °F 38.1 °F 14.0 °F 29% 30.37 in 10.0 mi NNW 13.8 mph - N/A   Clear
10:55 AM 44.6 °F 39.2 °F 14.0 °F 29% 30.37 in 10.0 mi NW 10.4 mph - N/A   Clear
11:15 AM 44.6 °F 38.4 °F 15.8 °F 31% 30.37 in 10.0 mi NW 12.7 mph 17.3 mph N/A   Clear
11:35 AM 46.4 °F 40.7 °F 14.0 °F 27% 30.36 in 10.0 mi NW 12.7 mph 18.4 mph N/A   Clear
11:55 AM 46.4 °F 41.1 °F 14.0 °F 27% 30.35 in 10.0 mi NW 11.5 mph 18.4 mph N/A   Clear
12:15 PM 46.4 °F 41.1 °F 14.0 °F 27% 30.33 in 10.0 mi NW 11.5 mph 17.3 mph N/A   Clear
12:35 PM 48.2 °F - 12.2 °F 24% 30.32 in 9.0 mi NW 12.7 mph - N/A   Clear
12:55 PM 48.2 °F - 12.2 °F 24% 30.31 in 10.0 mi NW 16.1 mph - N/A   Clear
1:15 PM 48.2 °F - 12.2 °F 24% 30.30 in 10.0 mi NW 10.4 mph 18.4 mph N/A   Clear
1:35 PM 48.2 °F - 10.4 °F 22% 30.30 in 10.0 mi NW 8.1 mph 16.1 mph N/A   Clear
1:55 PM 48.2 °F - 10.4 °F 22% 30.29 in 10.0 mi WNW 12.7 mph 17.3 mph N/A   Clear
2:15 PM 48.2 °F - 8.6 °F 20% 30.29 in 10.0 mi WNW 11.5 mph 18.4 mph N/A   Clear
2:35 PM 48.2 °F - 10.4 °F 22% 30.28 in 10.0 mi WNW 9.2 mph - N/A   Clear
2:55 PM 50.0 °F - 10.4 °F 20% 30.28 in 10.0 mi NNW 12.7 mph - N/A   Clear
3:15 PM 50.0 °F - 10.4 °F 20% 30.28 in 10.0 mi NW 11.5 mph 16.1 mph N/A   Clear
3:35 PM 50.0 °F - 10.4 °F 20% 30.28 in 10.0 mi NW 6.9 mph - N/A   Clear
3:55 PM 50.0 °F - 8.6 °F 19% 30.28 in 10.0 mi WNW 4.6 mph - N/A   Clear
4:15 PM 50.0 °F - 10.4 °F 20% 30.28 in 10.0 mi NW 9.2 mph - N/A   Clear
4:35 PM 50.0 °F - 10.4 °F 20% 30.28 in 10.0 mi WNW 4.6 mph - N/A   Clear
4:55 PM 50.0 °F - 10.4 °F 20% 30.28 in 10.0 mi NW 6.9 mph - N/A   Clear
5:15 PM 48.2 °F - 12.2 °F 24% 30.28 in 10.0 mi NNW 4.6 mph - N/A   Clear
5:35 PM 46.4 °F - 12.2 °F 25% 30.28 in 10.0 mi Calm Calm - N/A   Clear
5:55 PM 42.8 °F - 17.6 °F 36% 30.28 in 10.0 mi Calm Calm - N/A   Clear
6:15 PM 39.2 °F - 21.2 °F 49% 30.28 in 10.0 mi Calm Calm - N/A   Clear
6:35 PM 39.2 °F - 19.4 °F 45% 30.28 in 10.0 mi Calm Calm - N/A   Clear
6:55 PM 37.4 °F - 19.4 °F 48% 30.28 in 10.0 mi Calm Calm - N/A   Clear
7:15 PM 35.6 °F - 23.0 °F 60% 30.28 in 10.0 mi Calm Calm - N/A   Clear
7:35 PM 35.6 °F - 21.2 °F 56% 30.27 in 10.0 mi Calm Calm - N/A   Clear
7:55 PM 35.6 °F - 21.2 °F 56% 30.27 in 10.0 mi Calm Calm - N/A   Clear
8:15 PM 33.8 °F - 21.2 °F 60% 30.27 in 10.0 mi Calm Calm - N/A   Clear
8:35 PM 33.8 °F - 23.0 °F 65% 30.27 in 10.0 mi Calm Calm - N/A   Clear
8:55 PM 33.8 °F - 23.0 °F 65% 30.27 in 10.0 mi Calm Calm - N/A   Clear
9:15 PM 32.0 °F - 23.0 °F 69% 30.27 in 10.0 mi Calm Calm - N/A   Clear
9:35 PM 32.0 °F - 24.8 °F 75% 30.27 in 10.0 mi Calm Calm - N/A   Clear
9:55 PM 32.0 °F - 23.0 °F 69% 30.26 in 10.0 mi Calm Calm - N/A   Clear
10:15 PM 32.0 °F - 26.6 °F 80% 30.26 in 10.0 mi Calm Calm - N/A   Clear
10:35 PM 32.0 °F - 24.8 °F 75% 30.26 in 10.0 mi Calm Calm - N/A   Clear
10:55 PM 32.0 °F - 26.6 °F 80% 30.25 in 10.0 mi Calm Calm - N/A   Clear
11:15 PM 32.0 °F 28.7 °F 24.8 °F 75% 30.25 in 10.0 mi South 3.5 mph - N/A   Clear
11:35 PM 32.0 °F 27.5 °F 26.6 °F 80% 30.24 in 10.0 mi SSW 4.6 mph - N/A   Clear
11:55 PM 32.0 °F 28.7 °F 26.6 °F 80% 30.23 in 10.0 mi SSW 3.5 mph - N/A   Clear